CW3821 Weather Reports


time (UTC)temp
F
wind
direction
speed
knots
gust
knots
rain 1hr
in
rain 24hr
in
rain mn
in
humidity
%
barometer
mb
20240416034520 50 268 6.1 0.0 0.00 0.00 0.00 32 993.1
20240416033053 50 282 5.2 0.0 0.00 0.00 0.00 32 993.4
20240416031546 51 282 3.5 0.0 0.00 0.00 0.00 32 994.8
20240416030035 51 295 4.3 0.0 0.00 0.00 0.00 33 994.5
20240416024506 50 260 9.6 0.0 0.00 0.00 0.00 35 994.1
20240416023110 50 284 14.8 0.0 0.00 0.00 0.00 35 994.3
20240416023002 50 301 13.9 0.0 0.00 0.00 0.00 35 994.3
20240416021537 51 320 14.8 0.0 0.00 0.00 0.00 34 994.5
20240416020013 51 304 13.9 0.0 0.00 0.00 0.00 33 994.2
20240416014553 52 284 13.9 0.0 0.00 0.00 0.00 33 993.5
20240416013031 52 295 14.8 0.0 0.00 0.00 0.00 33 993.3
20240416011530 54 306 9.6 0.0 0.00 0.00 0.00 30 993.9
20240416010024 55 304 15.6 0.0 0.00 0.00 0.00 28 992.9
20240416004559 56 320 16.5 0.0 0.00 0.00 0.00 25 992.3
20240416003107 58 274 10.4 0.0 0.00 0.00 0.00 23 991.9
20240416001516 58 316 10.4 0.0 0.00 0.00 0.00 22 991.6
20240416000034 59 294 6.1 0.0 0.00 0.00 0.00 21 991.0
20240415234514 61 264 12.2 0.0 0.00 0.00 0.00 19 989.7
20240415233057 65 219 3.5 0.0 0.00 0.00 0.00 8 988.9
20240415231558 65 181 3.5 0.0 0.00 0.00 0.00 8 988.6
20240415230030 66 217 7.0 0.0 0.00 0.00 0.00 7 988.4
20240415224525 66 205 9.6 0.0 0.00 0.00 0.00 8 988.1
20240415223100 67 167 7.0 0.0 0.00 0.00 0.00 7 987.9
20240415223004 67 178 7.0 0.0 0.00 0.00 0.00 7 987.9
20240415221554 67 191 9.6 0.0 0.00 0.00 0.00 7 986.6
20240415220050 68 161 7.0 0.0 0.00 0.00 0.00 7 986.9
20240415214540 68 189 8.7 0.0 0.00 0.00 0.00 7 986.5
20240415213032 70 143 7.0 0.0 0.00 0.00 0.00 6 986.6
20240415211530 70 186 7.8 0.0 0.00 0.00 0.00 7 987.1
20240415210026 69 179 7.8 0.0 0.00 0.00 0.00 7 987.1
20240415204556 70 155 7.8 0.0 0.00 0.00 0.00 7 986.8
20240415203034 71 196 9.6 0.0 0.00 0.00 0.00 7 986.8
20240415201524 72 164 8.7 0.0 0.00 0.00 0.00 7 985.8
20240415200020 72 267 7.0 0.0 0.00 0.00 0.00 6 985.9
20240415194550 73 181 7.8 0.0 0.00 0.00 0.00 7 986.4
20240415193042 72 205 8.7 0.0 0.00 0.00 0.00 6 986.6
20240415191546 72 182 7.8 0.0 0.00 0.00 0.00 6 986.6
20240415190030 73 184 7.0 0.0 0.00 0.00 0.00 6 986.9
20240415184531 72 137 6.1 0.0 0.00 0.00 0.00 7 987.3
20240415183027 73 138 2.6 0.0 0.00 0.00 0.00 7 988.3
20240415181508 72 62 1.7 0.0 0.00 0.00 0.00 8 988.0
20240415180103 72 185 4.3 0.0 0.00 0.00 0.00 9 988.4
20240415174544 72 178 2.6 0.0 0.00 0.00 0.00 9 988.9
20240415173021 71 271 1.7 0.0 0.00 0.00 0.00 8 989.8
20240415171549 71 248 2.6 0.0 0.00 0.00 0.00 9 989.1
20240415170031 70 210 1.7 0.0 0.00 0.00 0.00 10 989.5
20240415164536 71 168 1.7 0.0 0.00 0.00 0.00 11 989.6
20240415163034 69 193 2.6 0.0 0.00 0.00 0.00 11 990.3
20240415161536 68 167 0.0 0.0 0.00 0.00 0.00 13 990.4
20240415160021 66 313 0.0 0.0 0.00 0.00 0.00 17 990.8
20240415154524 65 127 0.0 0.0 0.00 0.00 0.00 17 991.9
20240415153004 62 359 1.7 0.0 0.00 0.00 0.00 19 992.5
20240415151546 60 330 2.6 0.0 0.00 0.00 0.00 21 992.8
20240415150040 58 258 3.5 0.0 0.00 0.00 0.00 22 992.8
20240415144534 58 326 0.9 0.0 0.00 0.00 0.00 23 993.1
20240415143017 58 326 0.0 0.0 0.00 0.00 0.00 22 993.4
20240415141557 57 14 0.0 0.0 0.00 0.00 0.00 22 993.0
20240415141500 57 325 0.0 0.0 0.00 0.00 0.00 21 993.0
20240415140058 56 31 0.0 0.0 0.00 0.00 0.00 21 993.3
20240415140002 57 30 0.0 0.0 0.00 0.00 0.00 21 993.3
20240415134557 57 44 0.0 0.0 0.00 0.00 0.00 19 993.3
20240415134501 57 54 0.0 0.0 0.00 0.00 0.00 19 993.3
20240415133047 56 58 0.0 0.0 0.00 0.00 0.00 19 994.0
20240415131507 53 52 0.0 0.0 0.00 0.00 0.00 22 993.5
20240415130049 51 52 0.0 0.0 0.00 0.00 0.00 23 993.1
20240415124541 52 323 0.0 0.0 0.00 0.00 0.00 21 993.2
20240415123047 52 20 0.0 0.0 0.00 0.00 0.00 21 992.8
20240415121514 53 261 0.0 0.0 0.00 0.00 0.00 20 993.0
20240415120047 51 226 0.0 0.0 0.00 0.00 0.00 21 993.1
20240415114529 51 220 0.0 0.0 0.00 0.00 0.00 22 993.1
20240415113024 52 236 0.0 0.0 0.00 0.00 0.00 21 993.3
20240415111606 51 195 0.0 0.0 0.00 0.00 0.00 22 993.0
20240415111501 51 193 0.0 0.0 0.00 0.00 0.00 22 993.0
20240415110057 52 154 0.0 0.0 0.00 0.00 0.00 22 992.7
20240415104547 54 232 0.0 0.0 0.00 0.00 0.00 20 992.7
20240415103023 55 241 0.0 0.0 0.00 0.00 0.00 19 992.3
20240415101604 56 243 0.0 0.0 0.00 0.00 0.00 18 992.6
20240415101502 56 240 0.0 0.0 0.00 0.00 0.00 17 992.6
20240415100051 55 219 0.0 0.0 0.00 0.00 0.00 19 992.9
20240415094531 53 144 0.0 0.0 0.00 0.00 0.00 22 992.9
20240415093006 53 251 0.0 0.0 0.00 0.00 0.00 20 993.4
20240415091529 53 244 0.0 0.0 0.00 0.00 0.00 23 993.2
20240415090024 54 254 0.0 0.0 0.00 0.00 0.00 23 993.2
20240415084522 53 217 0.0 0.0 0.00 0.00 0.00 24 992.8
20240415083010 56 250 0.0 0.0 0.00 0.00 0.00 24 992.9
20240415081547 58 232 0.0 0.0 0.00 0.00 0.00 23 993.2
20240415080034 58 196 0.0 0.0 0.00 0.00 0.00 21 993.2
20240415074510 58 210 0.0 0.0 0.00 0.00 0.00 22 993.6
20240415073005 59 220 0.0 0.0 0.00 0.00 0.00 21 993.7
20240415071537 59 237 0.0 0.0 0.00 0.00 0.00 20 994.3
20240415070026 59 179 0.9 0.0 0.00 0.00 0.00 21 994.0
20240415064509 61 224 0.9 0.0 0.00 0.00 0.00 20 994.2
20240415063049 60 171 0.0 0.0 0.00 0.00 0.00 20 994.0
20240415061534 61 188 0.0 0.0 0.00 0.00 0.00 19 994.8
20240415060030 62 174 0.0 0.0 0.00 0.00 0.00 18 994.5
20240415054516 64 174 0.9 0.0 0.00 0.00 0.00 17 994.3
20240415053054 65 154 0.0 0.0 0.00 0.00 0.00 16 994.6
20240415051536 65 145 1.7 0.0 0.00 0.00 0.00 15 995.5
20240415050018 65 167 0.9 0.0 0.00 0.00 0.00 15 995.4
20240415044549 66 176 1.7 0.0 0.00 0.00 0.00 14 995.2
20240415043040 67 140 5.2 0.0 0.00 0.00 0.00 13 995.4
20240415041532 68 160 7.0 0.0 0.00 0.00 0.00 13 996.1
20240415040015 67 195 5.2 0.0 0.00 0.00 0.00 13 996.1